ゲーレルス第2彗星

78P/Gehrels 2 (2012)

English version
Home page
Updated on April 28, 2012

---------------------------------------------------------------------

・ プロフィール

・ 写真集

・ 軌道要素

Epoch 2011 Dec. 25.0 TT = JDT 2455920.5
T 2012 Jan. 12.91477 TT                                 MPC
q   2.0085777            (2000.0)            P               Q
n   0.13631361     Peri.  192.79762     +0.72776858     -0.68358184
a   3.7391817      Node   210.55871     +0.63844070     +0.70477685
e   0.4628296      Incl.    6.25523     +0.25049224     +0.18975103
P   7.23
From 4943 observations 1996 June 18-2012 Mar. 15, mean residual 0".6.
     Nongravitational parameters A1 = +0.76, A2 = -0.1245.

・ 星図

・ 光度変化

        m1 = 1.3 + 5 logΔ + 31.5 log r  [   ,  0]  (              〜2012年 1月12日)
        m1 = 7.8 + 5 logΔ + 10.0 log r  [  0,220]  (2012年 1月12日〜2012年 8月19日)
        m1 = 2.3 + 5 logΔ + 23.0 log r  [220,   ]  (2012年 8月19日〜               )

---------------------------------------------------------------------

軌道要素はM.P.E.C. 2012-F11に掲載されたものです。
星図は StellaNavigator Ver.2.0 for Windows (アストロアーツ編著 / アスキー出版局刊) で作成したものです。
光度グラフはComet for Windowsで作成したものです。

---------------------------------------------------------------------

Copyright(C) Seiichi Yoshida (comet@aerith.net). All rights reserved.